When you browse on this site, cookies collect data to enhance your experience and personalize the content and advertising you see.
Visit our Privacy Policy to learn more. By continuing to use the site, you agree to this use of cookies and data.
  • In Deutschland
  • Länderverzeichnis
  • Für 7 Tage
  • Wassertemperatur
  • Wetterkarte
  • Widgets
  • user-avatar
    Anmelden

    Stündliche Wetter Münster

    Heute, 15 Oktober, Dienstag

    Zeit Temperatur Niederschläge Wind Luftdruck Luftfeuchtigkeit
    00:00 +17°C° 0 mm 3 m/S 750 mmHg 77%
    01:00 +16°C° 0 mm 2 m/S 750 mmHg 77%
    02:00 +16°C° 0 mm 3 m/S 750 mmHg 79%
    03:00 +16°C° 0 mm 3 m/S 749 mmHg 80%
    04:00 +16°C° 0 mm 3 m/S 749 mmHg 82%
    05:00 +14°C° 0 mm 3 m/S 749 mmHg 84%
    06:00 +14°C° 0 mm 3 m/S 749 mmHg 85%
    07:00 +15°C° 0 mm 2 m/S 749 mmHg 87%
    08:00 +16°C° 0 mm 2 m/S 749 mmHg 83%
    09:00 +18°C° 0 mm 2 m/S 749 mmHg 78%
    10:00 +19°C° 0 mm 3 m/S 749 mmHg 74%
    11:00 +20°C° 0 mm 3 m/S 749 mmHg 71%
    12:00 +20°C° 0 mm 3 m/S 749 mmHg 68%
    13:00 +21°C° 0 mm 3 m/S 749 mmHg 65%
    14:00 +20°C° 0 mm 3 m/S 748 mmHg 69%
    15:00 +19°C° 0 mm 3 m/S 748 mmHg 73%
    16:00 +19°C° 0 mm 3 m/S 748 mmHg 77%
    17:00 +17°C° 1 mm 3 m/S 748 mmHg 82%
    18:00 +15°C° 1 mm 4 m/S 748 mmHg 88%
    19:00 +14°C° 1 mm 5 m/S 748 mmHg 93%
    20:00 +14°C° 3.5 mm 5 m/S 749 mmHg 93%
    21:00 +13°C° 3.5 mm 5 m/S 749 mmHg 94%
    22:00 +13°C° 3.5 mm 5 m/S 749 mmHg 94%
    23:00 +13°C° 2.4 mm 5 m/S 750 mmHg 93%

    Morgen, 16 Oktober, Mittwoch

    Zeit Temperatur Niederschläge Wind Luftdruck Luftfeuchtigkeit
    00:00 +12°C° 2.4 mm 5 m/S 750 mmHg 92%
    01:00 +11°C° 2.4 mm 6 m/S 750 mmHg 90%
    02:00 +12°C° 0.5 mm 5 m/S 750 mmHg 90%
    03:00 +12°C° 0.5 mm 5 m/S 750 mmHg 89%
    04:00 +11°C° 0.5 mm 4 m/S 750 mmHg 89%
    05:00 +10°C° 0.1 mm 5 m/S 750 mmHg 88%
    06:00 +10°C° 0.1 mm 5 m/S 751 mmHg 87%
    07:00 +10°C° 0.1 mm 5 m/S 751 mmHg 86%
    08:00 +10°C° 0 mm 6 m/S 751 mmHg 84%
    09:00 +11°C° 0 mm 6 m/S 751 mmHg 82%
    10:00 +11°C° 0 mm 6 m/S 751 mmHg 80%
    11:00 +13°C° 0 mm 6 m/S 751 mmHg 77%
    12:00 +14°C° 0 mm 6 m/S 751 mmHg 74%
    13:00 +15°C° 0 mm 6 m/S 751 mmHg 71%
    14:00 +14°C° 0 mm 6 m/S 751 mmHg 75%
    15:00 +14°C° 0 mm 5 m/S 751 mmHg 79%
    16:00 +13°C° 0 mm 5 m/S 751 mmHg 83%
    17:00 +13°C° 0.2 mm 5 m/S 751 mmHg 84%
    18:00 +13°C° 0.2 mm 5 m/S 751 mmHg 86%
    19:00 +13°C° 0.2 mm 5 m/S 751 mmHg 88%
    20:00 +13°C° 0.2 mm 5 m/S 751 mmHg 87%
    21:00 +13°C° 0.2 mm 5 m/S 751 mmHg 86%
    22:00 +13°C° 0.2 mm 4 m/S 752 mmHg 86%
    23:00 +13°C° 0.1 mm 5 m/S 751 mmHg 85%

    übermorgen, 17 Oktober, Donnerstag

    Zeit Temperatur Niederschläge Wind Luftdruck Luftfeuchtigkeit
    00:00 +13°C° 0.1 mm 5 m/S 751 mmHg 84%
    01:00 +13°C° 0.1 mm 5 m/S 751 mmHg 84%
    02:00 +13°C° 0.3 mm 5 m/S 751 mmHg 85%
    03:00 +13°C° 0.3 mm 5 m/S 751 mmHg 87%
    04:00 +13°C° 0.3 mm 5 m/S 751 mmHg 88%
    05:00 +13°C° 0.1 mm 5 m/S 751 mmHg 89%
    06:00 +13°C° 0.1 mm 5 m/S 752 mmHg 90%
    07:00 +13°C° 0.1 mm 4 m/S 752 mmHg 91%
    08:00 +13°C° 0.3 mm 4 m/S 752 mmHg 91%
    09:00 +13°C° 0.3 mm 4 m/S 752 mmHg 92%
    10:00 +13°C° 0.3 mm 3 m/S 753 mmHg 92%
    11:00 +13°C° 0.2 mm 4 m/S 753 mmHg 88%
    12:00 +14°C° 0.2 mm 4 m/S 753 mmHg 83%
    13:00 +14°C° 0.2 mm 4 m/S 754 mmHg 79%
    14:00 +14°C° 0 mm 4 m/S 754 mmHg 77%
    15:00 +14°C° 0 mm 3 m/S 754 mmHg 74%
    16:00 +14°C° 0 mm 3 m/S 754 mmHg 72%
    17:00 +13°C° 0 mm 3 m/S 754 mmHg 73%
    18:00 +12°C° 0 mm 3 m/S 755 mmHg 73%
    19:00 +12°C° 0 mm 3 m/S 755 mmHg 74%
    20:00 +11°C° 0 mm 3 m/S 755 mmHg 74%
    21:00 +11°C° 0 mm 3 m/S 755 mmHg 75%
    22:00 +10°C° 0 mm 3 m/S 756 mmHg 75%
    23:00 +10°C° 0 mm 3 m/S 755 mmHg 78%

    18 Oktober, Freitag

    Zeit Temperatur Niederschläge Wind Luftdruck Luftfeuchtigkeit
    00:00 +10°C° 0 mm 3 m/S 755 mmHg 80%
    01:00 +9°C° 0 mm 3 m/S 755 mmHg 83%
    02:00 +10°C° 0 mm 3 m/S 755 mmHg 83%
    03:00 +10°C° 0 mm 3 m/S 755 mmHg 84%
    04:00 +10°C° 0 mm 3 m/S 754 mmHg 84%
    05:00 +10°C° 0.2 mm 3 m/S 754 mmHg 87%
    06:00 +10°C° 0.2 mm 3 m/S 754 mmHg 89%
    07:00 +11°C° 0.2 mm 3 m/S 753 mmHg 92%
    08:00 +12°C° 0.2 mm 4 m/S 753 mmHg 88%
    09:00 +13°C° 0.2 mm 5 m/S 753 mmHg 85%
    10:00 +14°C° 0.2 mm 7 m/S 753 mmHg 81%
    11:00 +15°C° 0.2 mm 6 m/S 753 mmHg 76%
    12:00 +15°C° 0.2 mm 6 m/S 753 mmHg 71%
    13:00 +15°C° 0.2 mm 6 m/S 753 mmHg 66%
    14:00 +15°C° 0 mm 5 m/S 754 mmHg 67%
    15:00 +15°C° 0 mm 5 m/S 754 mmHg 67%
    16:00 +15°C° 0 mm 4 m/S 754 mmHg 67%
    17:00 +14°C° 0 mm 3 m/S 754 mmHg 70%
    18:00 +12°C° 0 mm 3 m/S 754 mmHg 73%
    19:00 +11°C° 0 mm 3 m/S 754 mmHg 76%
    20:00 +11°C° 0 mm 3 m/S 755 mmHg 77%
    21:00 +11°C° 0 mm 3 m/S 755 mmHg 78%
    22:00 +11°C° 0 mm 3 m/S 755 mmHg 79%
    23:00 +11°C° 0 mm 3 m/S 755 mmHg 80%

    19 Oktober, Samstag

    Zeit Temperatur Niederschläge Wind Luftdruck Luftfeuchtigkeit
    00:00 +10°C° 0 mm 3 m/S 754 mmHg 81%
    01:00 +10°C° 0 mm 3 m/S 754 mmHg 82%
    02:00 +10°C° 0 mm 4 m/S 754 mmHg 82%
    03:00 +10°C° 0 mm 4 m/S 754 mmHg 82%
    04:00 +10°C° 0 mm 4 m/S 754 mmHg 82%
    05:00 +10°C° 0 mm 4 m/S 754 mmHg 82%
    06:00 +10°C° 0 mm 4 m/S 754 mmHg 82%
    07:00 +10°C° 0 mm 3 m/S 753 mmHg 82%
    08:00 +11°C° 0 mm 4 m/S 753 mmHg 79%
    09:00 +12°C° 0 mm 4 m/S 753 mmHg 77%
    10:00 +13°C° 0 mm 5 m/S 753 mmHg 74%
    11:00 +14°C° 0 mm 5 m/S 753 mmHg 70%
    12:00 +15°C° 0 mm 5 m/S 752 mmHg 67%
    13:00 +16°C° 0 mm 5 m/S 752 mmHg 63%
    14:00 +17°C° 0 mm 4 m/S 752 mmHg 66%
    15:00 +16°C° 0 mm 3 m/S 751 mmHg 69%
    16:00 +16°C° 0 mm 2 m/S 751 mmHg 72%
    17:00 +15°C° 0 mm 2 m/S 751 mmHg 74%
    18:00 +15°C° 0 mm 2 m/S 750 mmHg 76%
    19:00 +14°C° 0 mm 2 m/S 750 mmHg 79%
    20:00 +13°C° 1.2 mm 3 m/S 749 mmHg 83%
    21:00 +13°C° 1.2 mm 3 m/S 749 mmHg 88%
    22:00 +13°C° 1.2 mm 4 m/S 748 mmHg 93%
    23:00 +12°C° 0.5 mm 4 m/S 748 mmHg 92%

    20 Oktober, Sonntag

    Zeit Temperatur Niederschläge Wind Luftdruck Luftfeuchtigkeit
    00:00 +12°C° 0.5 mm 4 m/S 747 mmHg 92%
    01:00 +12°C° 0.5 mm 4 m/S 747 mmHg 91%
    02:00 +12°C° 0.4 mm 3 m/S 747 mmHg 91%
    03:00 +13°C° 0.4 mm 2 m/S 746 mmHg 92%
    04:00 +12°C° 0.4 mm 2 m/S 746 mmHg 92%
    05:00 +12°C° 0 mm 2 m/S 746 mmHg 91%
    06:00 +11°C° 0 mm 3 m/S 747 mmHg 90%
    07:00 +11°C° 0 mm 4 m/S 747 mmHg 89%
    08:00 +12°C° 0.1 mm 5 m/S 747 mmHg 86%
    09:00 +11°C° 0.1 mm 6 m/S 747 mmHg 83%
    10:00 +13°C° 0.1 mm 6 m/S 748 mmHg 80%
    11:00 +13°C° 0 mm 6 m/S 748 mmHg 75%
    12:00 +14°C° 0 mm 6 m/S 748 mmHg 71%
    13:00 +14°C° 0 mm 6 m/S 748 mmHg 66%
    14:00 +14°C° 0 mm 6 m/S 749 mmHg 66%
    15:00 +14°C° 0 mm 5 m/S 749 mmHg 67%
    16:00 +14°C° 0 mm 4 m/S 749 mmHg 67%
    17:00 +13°C° 0 mm 4 m/S 750 mmHg 70%
    18:00 +11°C° 0 mm 3 m/S 750 mmHg 72%
    19:00 +10°C° 0 mm 3 m/S 750 mmHg 75%
    20:00 +10°C° 0 mm 3 m/S 751 mmHg 77%
    21:00 +10°C° 0 mm 4 m/S 751 mmHg 79%
    22:00 +8°C° 0 mm 4 m/S 752 mmHg 81%
    23:00 +8°C° 0 mm 4 m/S 752 mmHg 80%
    Mehr zeigen